Weather History for Springfield, MO

Change the Weather History Date:

Wednesday, June 26, 2013

  Actual Average Record
Temperature  
Mean Temperature 84 °F 76 °F  
Max Temperature 93 °F 87 °F 99 °F (1954)
Min Temperature 74 °F 66 °F 46 °F (1974)
Degree Days  
Heating Degree Days 0 0  
Month to date heating degree days 14 7  
Since 1 June heating degree days 14 7  
Since 1 July heating degree days 4508 4576  
Cooling Degree Days 19 11  
Month to date cooling degree days 235 218  
Year to date cooling degree days 362 333  
Since 1 June cooling degree days 235 218  
Growing Degree Days 33 (Base 50)    
Moisture  
Dew Point 71 °F    
Average Humidity 70    
Maximum Humidity 87    
Minimum Humidity 52    
Precipitation  
Precipitation 0.00 in 0.15 in 5.20 in (1932)
Month to date precipitation 2.08 4.23  
Year to date precipitation 25.80 22.26  
Snow  
Snow 0.00 in - - ()
Month to date snowfall 0.0  
Since 1 June snowfall 0.0  
Since 1 July snowfall 12.7  
Snow Depth 0.00 in    
Sea Level Pressure  
Sea Level Pressure 29.84 in    
Wind  
Wind Speed 12 mph (SW)    
Max Wind Speed 20 mph    
Max Gust Speed 26 mph    
Visibility 10 miles    
Events      
T = Trace of Precipitation, MM = Missing Value Source: NWS Daily Summary

Daily Weather History Graph

Daily Weather History Graph

Search for Another Location

Airport:

Trip Planner

Search our weather history database for the weather conditions in past years. The results will help you decide how hot, cold, wet, or windy it might be!

Date:

Astronomy

Jun. 26, 2013 Rise Set
Actual Time 5:55 AM CDT 8:37 PM CDT
Civil Twilight 5:24 AM CDT 9:08 PM CDT
Nautical Twilight 4:45 AM CDT 9:47 PM CDT
Astronomical Twilight 4:01 AM CDT 10:31 PM CDT
Moon 11:07 PM CDT (6/26) 9:42 AM CDT (6/26)
Length of Visible Light 15h 44m
Length of Day
14h 42m
Waning Gibbous, 85% of the Moon is Illuminated
Jun 26
Waning Gibbous
Jun 29
Last Quarter
Jul 8
New
Jul 15
First Quarter
Jul 22
Full

Hourly Weather History & Observations

Time (CDT) Temp. Heat Index Dew Point Humidity Pressure Visibility Wind Dir Wind Speed Gust Speed Precip Events Conditions
12:52 AM 77.0 °F - 66.9 °F 71% 29.83 in 10.0 mi South 12.7 mph - N/A   Clear
1:52 AM 75.9 °F - 66.9 °F 74% 29.81 in 10.0 mi South 12.7 mph - N/A   Clear
2:52 AM 75.9 °F - 68.0 °F 76% 29.80 in 10.0 mi South 15.0 mph - N/A   Clear
3:52 AM 75.0 °F - 68.0 °F 79% 29.79 in 10.0 mi South 13.8 mph - N/A   Clear
4:52 AM 73.9 °F - 69.1 °F 85% 29.79 in 10.0 mi South 13.8 mph - N/A   Clear
5:52 AM 73.9 °F - 69.1 °F 85% 29.79 in 10.0 mi South 15.0 mph - N/A   Clear
6:52 AM 75.0 °F - 69.1 °F 82% 29.82 in 10.0 mi South 9.2 mph - N/A   Clear
7:52 AM 80.1 °F 82.9 °F 69.1 °F 69% 29.82 in 10.0 mi SW 15.0 mph - N/A   Clear
8:52 AM 82.9 °F 86.5 °F 69.1 °F 63% 29.83 in 10.0 mi SW 13.8 mph 23.0 mph N/A   Clear
9:52 AM 84.9 °F 89.4 °F 70.0 °F 61% 29.85 in 10.0 mi WSW 12.7 mph - N/A   Clear
10:52 AM 87.1 °F 92.0 °F 70.0 °F 57% 29.85 in 10.0 mi WSW 17.3 mph 26.5 mph N/A   Clear
11:52 AM 88.0 °F 93.8 °F 71.1 °F 57% 29.85 in 10.0 mi WSW 15.0 mph - N/A   Clear
12:52 PM 90.0 °F 96.4 °F 71.1 °F 54% 29.86 in 10.0 mi West 13.8 mph 18.4 mph N/A   Clear
1:52 PM 91.0 °F 98.2 °F 72.0 °F 53% 29.85 in 10.0 mi West 12.7 mph - N/A   Clear
2:52 PM 91.9 °F 99.5 °F 72.0 °F 52% 29.85 in 10.0 mi West 11.5 mph - N/A   Clear
3:52 PM 91.9 °F 99.5 °F 72.0 °F 52% 29.83 in 10.0 mi West 13.8 mph - N/A   Clear
4:52 PM 93.0 °F 101.9 °F 73.0 °F 52% 29.83 in 10.0 mi WSW 10.4 mph - N/A   Clear
5:52 PM 91.9 °F 99.5 °F 72.0 °F 52% 29.82 in 10.0 mi West 9.2 mph - N/A   Clear
6:52 PM 91.0 °F 99.3 °F 73.0 °F 55% 29.84 in 10.0 mi WSW 6.9 mph - N/A   Clear
7:52 PM 88.0 °F 96.5 °F 73.9 °F 63% 29.85 in 10.0 mi West 8.1 mph - N/A   Clear
8:52 PM 84.0 °F 91.2 °F 73.9 °F 72% 29.85 in 10.0 mi WSW 8.1 mph - N/A   Clear
9:52 PM 82.0 °F 87.9 °F 73.9 °F 76% 29.86 in 10.0 mi WSW 9.2 mph - N/A   Clear
10:52 PM 80.1 °F 84.5 °F 73.9 °F 81% 29.88 in 10.0 mi WSW 8.1 mph - N/A   Clear
11:52 PM 79.0 °F - 73.9 °F 84% 29.88 in 10.0 mi WSW 9.2 mph - N/A   Clear